This is the latest recevied weather packets stored in our database for station/object KC8UZG. If no packets are shown the sender has not sent any weather packets the latest 10 day(s).
| Time | Temp. | Humidity | Pressure | Rain* | Wind** | Luminosity | Snow |
|---|---|---|---|---|---|---|---|
| 1777913739 | 21.67° C | 62% | - | 0 mm | - | 453 W/m² | - |
| 1777913117 | 22.22° C | 62% | 1007 hPa | 0 mm | - | 450 W/m² | - |
| 1777912525 | 21.67° C | 64% | 1007 hPa | 0 mm | - | 446 W/m² | - |
| 1777911930 | 21.67° C | 64% | 1007.2 hPa | 0 mm | - | 442 W/m² | - |
| 1777911336 | 20.56° C | 64% | 1007.2 hPa | 0 mm | - | 437 W/m² | - |
| 1777910742 | 21.11° C | 64% | 1007.3 hPa | 0 mm | - | 434 W/m² | - |
| 1777910121 | 20° C | 66% | 1007.3 hPa | 0 mm | - | 424 W/m² | - |
| 1777909526 | 20° C | 67% | 1007.3 hPa | 0 mm | - | 380 W/m² | - |
| 1777908933 | 19.44° C | 67% | 1007.4 hPa | 0 mm | - | 402 W/m² | - |
| 1777908338 | 19.44° C | 67% | 1007.6 hPa | 0 mm | - | 399 W/m² | - |
| 1777907717 | 18.89° C | 68% | 1007.3 hPa | 0 mm | - | 392 W/m² | - |
| 1777907125 | 18.89° C | 68% | 1007.3 hPa | 0 mm | - | 376 W/m² | - |
| 1777906530 | 18.33° C | 69% | 1007.4 hPa | 0 mm | - | 373 W/m² | - |
| 1777905935 | 17.78° C | 71% | 1007.5 hPa | 0 mm | - | 299 W/m² | - |
| 1777905341 | 17.22° C | 73% | 1007.5 hPa | 0 mm | - | 216 W/m² | - |
| 1777904721 | 16.67° C | 74% | 1007.6 hPa | 0 mm | - | 85 W/m² | - |
| 1777904127 | 16.11° C | 74% | 1007.8 hPa | 0 mm | - | 64 W/m² | - |
| 1777903533 | 15.56° C | 74% | 1008 hPa | 0 mm | - | 59 W/m² | - |
| 1777902939 | 15.56° C | 75% | 1008 hPa | 0 mm | - | 59 W/m² | - |
| 1777902317 | 15° C | 75% | 1008 hPa | 0 mm | - | 59 W/m² | - |
| 1777901724 | 14.44° C | 76% | 1008 hPa | 0 mm | - | 52 W/m² | - |
| 1777901130 | 13.89° C | 77% | 1008 hPa | 0 mm | - | 48 W/m² | - |
| 1777900535 | 13.33° C | 77% | 1008 hPa | 0 mm | - | 50 W/m² | - |
| 1777899942 | 12.78° C | 78% | - | 0 mm | - | 59 W/m² | - |
| 1777899320 | 12.78° C | 78% | 1008 hPa | 0 mm | - | 57 W/m² | - |
* Rain latest hour (hover to see other rain measurements)
** Current wind speed in m/s (hover to see current wind gust speed)